User: anonymous   Login
Location: Unspecified
(0.0000°N, 0.0000°E)
Time: 14:50:05
(UTC+00:00)
Language:

NEE 01 PEGASUS - Orbit

View from above orbital plane
View from above orbital plane
View from above satellite
View from above satellite

Ground track
Ground track

The orbit data is extracted from the following two-line orbital elements,

1 39151U 13018B   17206.24047092 +.00000123 +00000-0 +23482-4 0  9995
2 39151 097.9841 297.5209 0015754 288.4702 071.4797 14.79733523229154
Epoch (UTC): 25 July 2017 05:46:16
Eccentricity: 0.0015754
inclination: 97.9841°
perigee height: 619 km
apogee height: 641 km
right ascension of ascending node: 297.5209°
argument of perigee: 288.4702°
revolutions per day: 14.79733523
mean anomaly at epoch: 71.4797°
orbit number at epoch: 22915

The dashed part of the orbit path shows where the satellite is in the earth's shadow,  

DLR